NOAA 16 DEB, 41406

Orbit data source: Space-Track

NOAA 16 DEB, 41406 is space debris in SSO originally from a launch on Thu, 21 Sep 2000 UTC launched from the Air Force Western Test Range (AFWTR). Debris objects in space refer to the collection of defunct objects orbiting the Earth. Examples of debris include non-operational satellites, rocket bodies, and fragments generated from explosions, collisions, or faulty payload assembly.

Loading next visibility...
Identifier
41406, 2000-055KK
Orbit
SSO
Country
Flag of USUS
Related business
Manufacturer
Unknown
Mission
Spacecraft
Bus & Motor
Unknown
Mass
Unknown
Launch date (UTC)
2000-09-21 (26 years ago)
Launch vehicle
Unknown
Launch site
Air Force Western Test Range (AFWTR)
Object type
Payload
Rocket body
Debris
Shape & HBR
Unknown shape, 0.1 m
Radar Cross Section
Medium (>0.1 m² and <1 m²)

Expand to show TLE details & history
Last TLE update: 19 hours ago

TLE from 19 hours ago
0 NOAA 16 DEB
1 41406U 00055KK  26206.32970298  .00006592  00000-0  14479-2 0  9990
2 41406  98.9534  64.3103 0027620 293.5585  66.2711 14.57682824544379
Epoch: 2026-07-25T07:54Z
TLE epoch observation values (Epoch: 2026-07-25T07:54:46.337Z)
Latitude
Longitude
2.57369°
Altitude
695.8 km
Speed
7.512 km/s
True Right ascension
04h 17m 14s
True Declination
0° 00' 00"
Sunlit
Object was in daylight at epoch
Visualization orbit readout
Latitude
Unknown
Longitude
Unknown
Altitude
Unknown
Speed
Unknown
Apparent Right ascension
Unknown
Apparent Declination
Unknown
Sunlit
N/A
Visualization observer readout
Local Sidereal Time
16:15:04
Azimuth
Unknown
Elevation
Unknown
Doppler factor
Unknown
Orbital elements
Apogee altitude
717.33 km
Perigee altitude
678.243 km
Semi-major axis
7,075.923 km
Eccentricity
0.00276
Inclination
98.9534°
RAAN
64.3103°
Arg. of periapsis
293.5585°
True anomaly
66.56125°
Mean anomaly
66.2711°
Eccentric anomaly
66.41613°
Mean motion
3.64644 °/min
Orbital period
98.73 mins
BSTAR
0.0014479
Loading maneuver chart data...
Computing Atmospheric mass density...
Loading historical data...
Loading historical data...
Loading historical data...
Loading historical data...
Loading historical data...
Loading historical data...
Loading historical data...

Documentation

Showing up to 5 results
|